Location: Chagrin Falls Park
(41.4139°N, 81.3865°W)
Time: 18:42:01
(UTC+00:00)

X-37B - Pass Details

Date: 08 August 2021
Orbit: 381 x 393 km, 45.0° (Epoch: 29 August)

Event Time Altitude Azimuth Distance (km) Brightness Sun altitude
Exits shadow 09:18:50 - 292° (WNW) 1,517 3.3 -12.2°
Reaches altitude 10° 09:19:09 10° 293° (WNW) 1,398 3.1 -12.1°
Maximum altitude 09:22:10 44° 8° (N) 537 1.6 -11.7°
Drops below altitude 10° 09:25:12 10° 82° (E) 1,396 4.5 -11.2°
Sets 09:27:19 0° 89° (E) 2,249 5.5 -10.9°
